Wind_Speed
46 44 42 40 38 34 33 32 31 29 27 25 24 23 22 22 24 24 24 23 25 28 29 31 31 32 34 34 33 29 22 17 14 14 9 4 3 4 7 8 4 1 11 14 13
49 47 44 42 40 37 37 35 33 32 30 27 26 26 27 26 27 26 27 26 26 30 31 31 32 33 34 34 30 24 19 15 11 12 10 6 5 6 8 4 4 2 4 8 9
52 50 48 46 45 42 41 38 36 35 34 33 31 30 30 29 29 28 28 28 29 30 33 33 34 33 32 32 28 23 16 12 11 11 10 5 3 5 7 7 6 4 5 5 7
52 52 52 50 48 46 44 42 39 37 37 36 34 33 33 31 30 31 31 31 31 32 33 35 34 33 32 31 26 21 15 9 11 10 9 5 2 5 6 7 10 10 7 7 7
52 52 52 52 51 49 48 45 43 41 39 38 37 36 35 35 34 34 34 33 33 33 34 35 34 33 32 28 24 18 14 12 10 9 8 5 2 5 4 4 10 12 7 4 0
51 51 52 51 51 52 51 48 47 45 44 43 42 40 38 38 36 36 35 35 35 34 35 35 34 32 30 26 21 17 15 14 12 9 8 8 4 7 8 5 5 8 7 4 1
50 50 49 50 51 53 51 49 49 47 46 44 43 42 40 40 37 37 37 36 36 34 35 35 34 31 30 24 19 16 15 19 21 11 8 10 10 9 13 9 2 4 6 7 5
49 50 51 51 51 51 50 49 49 48 47 45 44 42 40 39 38 39 39 36 35 34 35 34 33 30 27 22 19 13 18 17 35 19 2 6 9 11 16 15 8 2 3 5 8
49 49 49 50 51 51 51 51 50 48 46 46 45 44 42 41 40 40 38 37 35 35 34 33 31 24 23 21 17 6 12 21 26 18 11 8 14 15 14 14 10 8 6 6 8
51 50 49 50 50 50 50 50 49 49 48 48 46 45 44 43 41 40 39 37 36 33 32 31 28 21 17 18 18 12 12 22 19 19 15 12 11 15 14 14 15 12 11 11 8
51 52 52 51 50 49 48 48 48 48 48 46 47 43 45 43 41 40 38 36 34 32 30 28 26 20 16 19 19 19 17 20 20 19 15 13 11 12 17 18 14 16 16 14 14
48 49 50 51 50 49 47 47 46 46 46 46 46 45 45 43 41 39 36 35 34 31 29 28 27 21 20 21 22 23 21 19 21 21 18 15 13 18 18 16 14 16 16 17 16
46 47 47 48 48 49 48 47 46 46 46 46 45 45 44 43 41 39 36 35 35 32 32 29 29 26 25 23 24 26 25 21 26 24 21 18 18 19 23 24 15 17 16 18 19
39 41 43 45 45 46 47 47 47 46 46 44 44 44 44 43 42 41 39 38 37 35 34 32 32 31 26 26 28 29 28 25 30 27 22 22 21 24 23 23 21 16 17 19 20
33 33 35 37 39 41 43 44 45 45 46 41 43 45 43 44 38 43 41 40 39 38 37 36 32 34 30 31 29 32 28 28 28 28 27 25 27 26 25 22 21 20 19 22 23
32 31 31 30 32 34 37 38 39 40 38 40 41 42 44 44 44 42 43 42 41 40 40 36 36 34 32 31 31 31 29 27 26 29 31 29 30 30 27 21 20 18 17 17 16
33 31 30 29 30 32 33 34 34 33 34 32 33 36 38 39 39 41 41 41 41 40 40 36 38 35 33 31 29 28 25 25 28 30 32 33 34 33 27 24 22 21 19 17 16
35 33 32 30 29 29 31 33 33 32 31 31 29 29 29 29 31 33 35 36 34 35 34 35 35 35 30 27 25 26 25 29 28 28 28 31 41 37 28 28 27 24 20 17 17
37 35 35 32 30 28 28 30 30 29 30 30 30 27 26 25 25 26 26 27 27 29 30 30 31 27 27 24 25 25 27 26 26 28 29 41 38 41 31 31 30 26 22 18 17
40 38 37 35 31 29 29 29 29 28 28 29 30 28 26 24 22 21 21 22 22 23 24 25 27 25 24 26 28 29 27 27 27 28 30 34 36 35 34 34 32 28 23 21 19
41 39 38 36 33 30 30 29 29 28 28 28 29 29 27 24 23 23 21 21 20 21 21 22 25 25 28 33 35 33 31 28 28 28 31 30 36 26 34 35 33 30 27 24 22
40 40 38 37 35 31 30 29 29 28 29 28 28 27 25 24 22 19 18 18 18 19 21 23 26 29 33 35 35 33 31 28 28 30 31 31 25 24 27 29 29 25 23 20 20
40 40 37 38 36 31 30 28 28 27 28 28 27 25 24 21 20 18 17 17 17 18 18 16 16 19 24 29 31 33 31 28 28 29 27 30 19 22 24 25 24 22 20 19 20
40 42 38 38 37 34 31 29 27 28 29 28 26 25 23 21 21 17 15 14 11 12 12 10 8 5 5 14 20 25 26 26 24 24 25 26 18 23 23 24 22 20 17 17 18
41 43 40 40 38 34 32 29 28 29 30 28 26 24 24 24 19 15 13 11 10 10 8 5 1 5 3 3 9 15 16 16 18 18 20 20 17 22 20 18 17 15 13 14 16
42 43 44 41 40 39 35 31 29 31 31 29 27 26 25 21 18 15 13 14 14 10 5 4 4 6 8 9 10 11 12 13 14 14 15 17 16 16 16 14 14 12 12 14 16
46 46 47 44 43 40 37 32 31 34 32 30 29 29 25 22 18 18 17 18 13 11 8 6 6 7 7 7 9 9 10 12 13 14 14 10 17 19 17 16 16 16 15 14 16
Wind_Direction
238 239 241 242 243 243 243 248 251 252 255 260 267 274 278 287 294 302 305 311 315 320 324 326 330 333 335 339 340 355 345 358 356 354 1 356 280 323 344 335 327 82 203 195 206
239 241 242 243 244 246 244 245 249 254 259 260 262 269 277 282 288 294 299 302 307 313 318 322 322 329 331 337 337 341 345 350 354 351 0 15 339 319 317 301 328 302 217 218 227
241 242 243 245 246 247 249 248 250 254 258 262 262 268 274 282 286 290 294 297 304 308 313 315 318 322 326 332 333 336 345 347 350 353 3 15 5 325 334 332 357 326 281 260 258
244 244 245 245 247 249 250 251 253 254 258 262 264 268 273 280 285 289 290 295 301 305 308 312 312 316 322 328 331 335 338 342 344 356 359 14 273 281 349 25 9 4 343 309 291
244 245 245 246 248 248 250 253 254 256 258 261 266 270 272 278 283 286 289 292 296 301 304 305 306 312 319 324 328 333 330 332 333 347 359 22 332 264 322 358 34 10 7 1 72
243 246 247 247 248 250 252 254 255 256 259 261 265 268 273 277 279 282 284 288 292 295 298 300 304 309 314 318 324 329 328 331 336 352 12 14 319 271 274 302 34 31 22 47 351
240 242 245 248 251 253 253 254 256 257 259 262 265 269 272 274 278 278 282 286 291 291 292 296 301 306 310 312 316 324 330 344 334 345 32 32 322 312 264 256 281 34 1 11 9
241 241 242 244 246 249 252 254 256 257 260 261 264 267 269 272 274 277 281 284 285 287 290 294 296 300 304 304 308 323 1 47 287 310 328 197 204 266 257 249 250 251 297 334 359
243 243 243 244 246 247 249 251 254 256 257 260 262 264 266 269 269 273 276 279 280 283 288 289 290 292 296 295 298 335 102 277 268 298 289 222 223 234 245 260 239 248 267 279 319
243 243 244 246 246 248 249 251 252 253 254 256 259 262 264 264 267 269 272 274 278 280 282 283 284 284 281 281 288 284 222 258 285 293 290 274 237 214 231 252 252 244 245 269 292
243 244 244 246 247 248 250 251 253 254 255 256 257 260 262 264 264 266 268 272 273 274 275 278 275 275 268 272 275 277 280 287 285 286 285 270 253 239 243 252 262 262 247 252 270
244 243 244 245 246 248 249 251 252 254 256 256 257 258 260 262 263 264 266 267 268 268 269 269 269 272 267 265 270 276 277 278 278 279 279 272 254 239 246 250 239 235 249 238 248
243 243 244 244 245 246 246 248 251 253 255 256 258 259 260 261 262 262 262 262 264 265 264 265 267 264 262 265 267 271 275 274 273 270 274 272 264 249 233 251 238 234 251 239 235
243 243 244 244 245 246 245 246 249 252 254 255 256 258 259 260 259 259 259 260 260 261 263 262 262 262 263 262 265 268 273 269 263 265 268 267 262 256 247 237 246 235 241 239 232
243 241 242 242 242 243 243 245 248 251 252 255 254 254 256 256 256 255 257 258 258 259 259 258 262 262 263 263 267 269 272 262 264 264 260 260 261 260 257 257 248 248 240 238 241
241 241 242 241 240 241 242 244 246 249 252 249 251 252 252 252 252 254 256 258 258 257 258 260 261 263 265 269 268 268 263 263 260 255 253 255 256 258 259 259 260 256 254 253 239
238 237 241 241 242 241 242 243 244 246 244 248 250 250 252 252 253 254 255 257 257 258 257 258 261 266 266 264 261 260 261 259 255 251 247 250 254 256 257 258 257 258 256 250 243
235 236 240 245 244 243 243 243 243 243 245 246 249 251 253 253 253 251 251 254 255 257 257 257 258 258 259 256 254 255 252 250 251 251 248 261 250 256 253 257 256 255 255 248 235
234 234 237 241 244 246 243 241 242 244 243 241 242 247 249 251 249 250 249 249 248 249 251 253 252 253 249 245 245 248 248 250 251 248 239 234 248 252 251 254 258 257 256 257 250
234 234 235 238 241 243 242 243 242 241 241 238 237 240 245 248 250 250 248 247 248 249 250 246 250 243 242 242 247 247 249 244 244 246 247 247 247 251 253 253 255 259 263 264 256
234 234 234 236 238 239 240 242 240 238 236 236 235 236 241 246 248 246 247 249 246 244 247 248 251 244 249 247 249 247 242 242 240 241 246 249 251 255 257 261 263 269 272 272 266
230 231 231 234 235 236 237 239 238 235 232 233 233 234 237 239 242 239 234 235 243 248 251 251 254 251 247 246 246 240 235 234 235 239 243 252 254 254 258 262 267 269 270 270 264
227 226 227 230 233 232 233 235 235 230 228 229 229 230 232 231 225 219 223 237 249 259 262 266 265 262 250 243 234 225 225 229 233 239 245 251 263 259 259 260 265 270 273 270 262
227 221 224 226 228 227 226 229 229 226 226 227 226 225 224 217 211 215 229 240 246 257 262 282 291 274 249 234 215 209 216 226 232 238 248 258 263 266 267 268 270 269 264 258 253
227 221 222 222 225 224 222 225 225 224 223 220 221 218 210 208 212 221 223 218 220 241 246 248 276 112 139 182 198 207 220 225 232 240 251 264 256 259 264 267 263 257 249 243 242
225 222 219 221 222 221 218 219 222 220 218 214 214 209 205 212 221 212 206 205 201 212 227 203 190 167 171 179 193 205 215 220 228 235 238 249 258 259 263 264 256 242 229 226 232
222 221 215 218 219 220 218 214 218 217 213 210 209 206 207 217 219 204 198 195 197 194 201 211 196 189 187 198 215 223 228 224 224 233 246 269 299 274 257 254 256 256 254 245 243
Height
10983 10986 10989 10992 10995 10998 11001 11003 11004 11005 11007 11008 11007 11007 11007 11007 11007 11006 11006 11005 11004 11002 11000 10997 10996 10994 10992 10989 10987 10989 10982 10980 10976 10973 10972 10971 10970 10969 10968 10968 10966 10965 10964 10964 10965
10977 10980 10983 10986 10989 10991 10996 10999 11000 11001 11002 11004 11005 11004 11003 11005 11004 11005 11003 11003 11002 10999 10997 10995 10994 10992 10989 10987 10985 10984 10981 10978 10976 10973 10971 10970 10970 10969 10967 10967 10966 10964 10964 10963 10963
10970 10973 10976 10979 10982 10985 10989 10992 10995 10997 10997 10998 11000 11001 11000 11001 11001 11001 11001 10999 10998 10996 10994 10992 10990 10989 10988 10985 10983 10980 10979 10977 10975 10973 10972 10971 10970 10969 10967 10965 10965 10964 10963 10962 10961
10963 10966 10969 10972 10975 10978 10981 10985 10988 10991 10992 10993 10994 10996 10997 10997 10997 10997 10996 10996 10995 10993 10991 10988 10986 10986 10985 10983 10980 10978 10977 10976 10974 10973 10972 10972 10972 10971 10969 10966 10964 10962 10961 10960 10959
10955 10958 10962 10965 10968 10971 10973 10977 10981 10983 10986 10988 10989 10991 10992 10993 10992 10992 10991 10991 10991 10990 10987 10985 10982 10983 10982 10980 10978 10976 10975 10974 10974 10974 10975 10975 10975 10974 10970 10966 10965 10963 10961 10959 10959
10945 10949 10953 10957 10960 10962 10966 10969 10973 10976 10978 10982 10983 10986 10987 10987 10988 10987 10986 10986 10986 10986 10984 10981 10979 10979 10978 10977 10976 10975 10974 10974 10975 10977 10978 10973 10970 10972 10972 10968 10966 10965 10963 10961 10960
10936 10940 10944 10948 10951 10954 10957 10960 10964 10967 10971 10974 10976 10978 10980 10981 10981 10981 10980 10982 10981 10980 10979 10977 10975 10975 10974 10974 10975 10975 10976 10977 10979 10981 10979 10970 10966 10965 10972 10970 10967 10965 10964 10963 10961
10927 10931 10935 10938 10941 10944 10948 10952 10955 10959 10962 10966 10968 10971 10973 10974 10975 10974 10974 10975 10975 10974 10973 10972 10971 10972 10971 10971 10973 10974 10976 10980 10970 10981 10980 10971 10946 10964 10970 10969 10967 10965 10964 10962 10961
10918 10922 10926 10929 10932 10935 10940 10943 10946 10950 10953 10957 10960 10962 10966 10967 10968 10968 10968 10969 10969 10969 10968 10967 10967 10969 10967 10967 10970 10974 10972 10973 10978 10973 10974 10975 10973 10970 10969 10966 10965 10964 10964 10963 10961
10908 10913 10916 10919 10923 10927 10931 10934 10937 10941 10944 10947 10951 10954 10956 10958 10960 10962 10962 10962 10963 10963 10962 10961 10961 10965 10965 10964 10964 10968 10973 10972 10968 10966 10965 10965 10966 10967 10965 10964 10962 10963 10963 10963 10962
10898 10903 10907 10910 10914 10919 10922 10925 10928 10932 10934 10939 10941 10946 10946 10949 10952 10954 10955 10956 10956 10957 10956 10956 10957 10960 10961 10960 10960 10962 10964 10986 10963 10961 10959 10960 10959 10960 10961 10961 10961 10961 10962 10961 10961
10887 10892 10896 10900 10905 10909 10913 10916 10919 10922 10925 10928 10931 10936 10938 10941 10943 10945 10947 10948 10948 10950 10951 10951 10951 10955 10955 10955 10955 10956 10957 10959 10957 10956 10955 10955 10955 10956 10957 10957 10958 10959 10959 10959 10959
10877 10882 10886 10890 10895 10899 10903 10906 10909 10912 10915 10919 10922 10925 10929 10932 10935 10936 10938 10940 10941 10943 10944 10946 10946 10948 10949 10950 10950 10949 10951 10954 10952 10951 10951 10951 10950 10951 10953 10953 10956 10956 10956 10957 10957
10868 10872 10876 10881 10885 10889 10892 10896 10899 10902 10905 10910 10913 10915 10918 10921 10925 10926 10929 10931 10933 10936 10937 10939 10939 10941 10944 10944 10944 10944 10945 10946 10945 10945 10947 10946 10945 10945 10946 10948 10951 10953 10953 10953 10954
10861 10865 10867 10872 10876 10879 10883 10886 10889 10892 10894 10903 10904 10904 10909 10910 10917 10915 10919 10922 10925 10927 10928 10929 10933 10933 10937 10937 10939 10937 10939 10938 10939 10940 10941 10941 10939 10940 10942 10944 10947 10948 10950 10950 10950
10854 10858 10860 10865 10868 10871 10873 10877 10881 10883 10889 10889 10892 10895 10897 10900 10903 10908 10909 10912 10915 10918 10920 10923 10923 10926 10928 10930 10931 10930 10931 10932 10933 10933 10934 10935 10933 10934 10936 10940 10942 10943 10945 10944 10946
10847 10851 10854 10857 10861 10863 10866 10869 10873 10876 10879 10883 10885 10886 10888 10892 10895 10897 10900 10903 10905 10909 10912 10915 10915 10918 10920 10921 10923 10923 10925 10926 10925 10927 10928 10929 10928 10928 10933 10935 10937 10938 10939 10940 10941
10840 10845 10847 10850 10853 10856 10860 10863 10865 10869 10873 10875 10878 10880 10882 10884 10887 10889 10892 10894 10898 10899 10903 10905 10907 10908 10912 10913 10916 10916 10918 10917 10918 10921 10924 10926 10920 10923 10929 10928 10930 10932 10934 10935 10937
10832 10837 10840 10844 10847 10849 10852 10855 10859 10862 10865 10868 10871 10874 10875 10878 10880 10882 10885 10887 10890 10892 10894 10896 10897 10902 10904 10907 10908 10910 10911 10912 10914 10914 10916 10915 10915 10915 10923 10924 10924 10926 10929 10931 10933
10824 10828 10832 10836 10839 10842 10845 10848 10852 10855 10858 10861 10863 10867 10870 10872 10875 10877 10879 10881 10884 10886 10887 10890 10891 10895 10898 10900 10901 10902 10905 10906 10907 10908 10908 10907 10909 10911 10916 10917 10918 10921 10925 10927 10927
10815 10820 10824 10828 10832 10835 10838 10842 10845 10848 10851 10854 10857 10861 10864 10867 10870 10872 10874 10876 10878 10880 10882 10884 10886 10889 10891 10892 10894 10896 10897 10900 10902 10903 10902 10903 10901 10911 10909 10910 10912 10916 10919 10920 10922
10804 10811 10816 10820 10824 10828 10832 10835 10838 10842 10845 10848 10852 10856 10859 10862 10865 10867 10869 10871 10873 10875 10877 10879 10879 10880 10881 10882 10885 10889 10891 10894 10896 10897 10897 10897 10901 10904 10904 10905 10907 10911 10912 10913 10914
10795 10801 10808 10812 10817 10821 10825 10829 10832 10836 10839 10842 10847 10851 10854 10858 10861 10864 10866 10868 10869 10870 10871 10872 10872 10870 10869 10871 10875 10880 10884 10889 10891 10892 10894 10893 10898 10900 10899 10901 10903 10905 10906 10907 10907
10785 10792 10798 10803 10808 10813 10819 10822 10826 10830 10833 10838 10842 10846 10850 10854 10857 10861 10864 10865 10866 10866 10867 10868 10867 10865 10865 10867 10871 10876 10881 10885 10888 10890 10891 10891 10896 10895 10896 10897 10899 10900 10902 10901 10902
10775 10783 10790 10795 10800 10806 10812 10816 10820 10823 10828 10833 10837 10842 10847 10850 10854 10858 10861 10863 10864 10865 10866 10867 10867 10866 10868 10870 10873 10877 10880 10884 10886 10888 10889 10891 10892 10890 10891 10893 10894 10895 10896 10897 10898
10765 10773 10781 10787 10792 10797 10804 10809 10814 10818 10823 10828 10833 10838 10843 10848 10852 10855 10858 10860 10862 10864 10865 10867 10867 10868 10869 10871 10874 10876 10879 10881 10883 10885 10887 10888 10889 10888 10888 10888 10889 10891 10892 10893 10894
10753 10761 10770 10778 10784 10790 10797 10804 10807 10811 10818 10823 10829 10834 10840 10845 10848 10852 10855 10858 10861 10863 10864 10865 10866 10867 10869 10871 10873 10875 10877 10879 10881 10883 10884 10891 10895 10889 10886 10885 10885 10886 10886 10887 10888